Volver al catálogo

STARLINK-34743

ActivoComunicacionesSSO
NORAD 64937·PAYLOAD·🇺🇸 United States

Lanzado Jul 26, 2025 desde Vandenberg Space Force Base

Loading…

Próximos Pases (próximas 24 horas)

TLE

ActualizadoSource: CelesTrak SupGP

Época: Sep 14, 2026, 20:59 UTC

1 64937C 25158F   26257.87479167  .00019711  00000+0  61214-3 0  2573
2 64937  97.2851 116.2292 0001673  96.1522 212.0332 15.33415624    16

Sigue STARLINK-34743 en tiempo real con AllMySat

Download on the App Store